Theta_e
303 300 311 322 328 332 335 338 340 342 344 346 347 346 346 347 348 347 347 347 348 347 347 347 344 345 344 342 341 340 339 338 338 339 340 340 340 338 337 335 338 332 336
302 300 309 318 324 328 331 333 336 339 340 342 344 346 346 345 345 345 346 346 346 346 347 347 345 344 343 342 340 340 339 339 339 339 339 344 342 339 337 336 335 330 331
301 301 306 315 320 323 327 329 331 334 335 338 340 343 344 346 346 346 345 345 344 345 345 346 346 345 344 343 340 340 340 340 339 338 338 335 338 339 336 334 331 329 332
301 301 305 312 317 320 322 325 327 329 331 334 336 339 341 341 343 344 345 344 344 345 345 345 345 346 346 344 342 340 341 340 340 339 332 331 330 336 333 332 330 332 334
301 301 304 310 314 317 319 320 322 324 326 328 331 333 335 336 338 339 339 341 343 343 343 343 345 344 344 344 344 343 342 341 339 336 333 331 332 334 336 335 334 332 332
300 301 301 307 311 314 315 317 318 320 321 322 324 327 328 330 331 333 335 336 336 338 340 342 342 342 343 344 345 343 343 342 338 334 334 334 331 335 336 339 339 337 333
300 300 300 303 306 310 312 313 314 315 315 317 319 320 321 322 324 326 329 331 331 334 336 337 338 339 341 341 343 343 342 340 336 337 336 335 334 339 337 338 338 339 339
299 300 300 301 301 304 307 309 310 310 311 312 313 314 314 316 317 319 322 324 326 328 329 330 332 333 334 338 340 340 340 336 337 337 336 336 338 336 337 338 338 338 340
299 299 300 300 301 302 302 304 305 306 307 307 308 308 308 310 312 312 314 317 319 322 325 326 326 326 328 333 337 336 334 333 338 338 337 337 339 336 337 337 337 338 339
298 298 298 299 300 300 301 300 301 303 303 304 304 304 305 307 308 308 307 310 312 314 317 319 319 320 321 326 328 327 330 330 335 334 337 338 338 337 339 339 339 338 338
297 297 298 298 299 300 299 299 301 301 302 302 303 303 305 304 304 306 305 306 308 309 311 313 314 314 316 321 324 321 324 335 336 335 334 335 339 338 340 340 340 339 338
294 295 296 297 297 299 299 300 301 301 301 300 300 302 302 303 302 303 305 305 306 306 308 310 311 313 314 314 314 317 321 325 331 335 336 334 337 338 339 339 339 338 339
293 294 295 296 297 298 298 299 299 299 299 299 299 300 301 302 302 302 303 303 304 304 303 305 306 306 308 309 311 314 315 316 319 322 327 324 328 335 338 338 339 338 340
292 293 294 295 295 296 298 297 297 297 297 297 297 298 299 299 300 300 300 301 301 302 301 302 303 304 305 306 307 308 308 310 312 313 315 316 321 328 334 337 337 338 339
291 292 292 294 294 295 295 296 296 295 295 295 295 295 297 297 297 298 298 299 298 299 299 300 300 302 303 303 304 304 305 307 309 311 312 315 315 318 322 324 328 332 335
290 291 292 292 293 293 293 294 293 293 293 293 292 292 293 294 294 294 295 294 295 296 297 298 298 299 300 300 301 303 304 307 309 312 314 312 313 310 312 316 319 323 325
289 291 291 291 291 291 291 291 291 291 291 291 291 291 291 292 292 292 292 292 293 295 295 296 296 298 297 298 299 301 305 309 306 309 311 307 306 307 308 310 313 314 317
288 288 289 290 290 290 290 290 290 290 290 290 290 290 290 290 291 291 291 290 292 293 294 294 294 295 295 295 296 299 304 304 304 307 302 302 301 301 303 305 307 309 312
288 288 288 289 289 289 289 290 290 290 290 290 290 289 289 289 290 290 289 290 291 291 291 292 293 294 293 294 295 298 305 300 301 302 298 297 297 299 298 301 303 304 306
288 288 288 288 289 289 290 290 290 289 289 289 289 289 289 289 289 289 289 289 290 289 289 290 291 293 292 292 293 297 302 303 299 300 296 296 295 297 297 297 299 300 303
288 287 287 287 288 289 290 290 289 287 288 288 288 288 288 288 288 288 288 288 288 288 287 287 289 290 290 291 291 294 297 302 295 297 296 296 293 295 295 295 297 297 299
287 287 287 287 287 288 289 289 289 288 287 287 288 288 288 288 288 287 287 287 287 287 286 286 287 288 289 290 286 291 289 294 292 295 295 294 292 293 293 293 296 296 296
287 287 287 287 287 287 288 288 288 288 288 287 287 287 287 287 287 287 287 287 287 287 285 285 286 286 286 288 289 287 284 282 287 292 292 292 290 291 292 292 293 294 295
288 288 288 287 287 287 287 288 287 287 285 285 286 287 287 287 287 287 287 287 286 286 285 285 286 285 285 284 287 288 288 286 283 282 288 290 289 288 289 290 291 292 293
289 288 288 288 287 287 287 287 288 286 286 286 286 286 286 287 286 286 286 286 285 285 285 285 284 284 285 284 284 285 285 286 286 282 281 283 287 288 288 291 291 291 292
289 288 288 287 287 287 287 287 287 286 286 286 286 286 286 286 286 285 285 285 285 285 284 284 285 284 284 284 284 285 284 282 282 281 280 281 281 284 287 289 288 290 289
Wind_Speed
10 11 17 20 21 21 21 20 19 18 19 17 13 10 9 8 8 8 8 9 9 8 7 7 2 4 4 3 3 3 3 2 3 3 3 1 4 6 5 4 9 8 5
9 10 14 19 19 20 20 20 19 18 18 17 16 15 10 6 6 7 7 8 9 9 9 8 2 3 4 4 4 4 3 2 2 2 1 7 5 5 4 3 7 6 3
9 8 12 17 17 18 18 18 18 18 18 17 16 16 14 13 11 8 8 8 8 8 9 9 7 4 5 4 5 5 4 4 3 2 5 10 9 5 2 1 2 2 1
8 8 12 16 16 17 17 17 17 17 17 17 16 17 16 15 15 13 11 11 10 9 9 8 8 9 6 7 7 7 6 5 4 4 7 4 2 8 3 2 1 1 1
8 9 12 16 15 16 16 17 16 17 17 16 16 16 16 15 15 14 13 14 13 12 10 10 11 9 8 7 8 7 7 6 5 6 10 4 4 9 4 4 5 4 4
9 9 11 15 15 16 16 16 16 17 17 17 16 16 15 15 15 16 15 14 12 11 11 11 11 12 12 9 10 10 8 7 6 9 10 3 4 4 4 6 6 6 5
8 8 9 12 14 16 16 16 16 16 16 16 15 15 15 15 15 15 14 14 14 13 13 13 13 12 12 11 11 8 8 9 8 9 9 6 7 8 4 8 10 11 11
8 8 8 8 10 12 16 16 16 16 16 16 15 15 14 14 15 16 16 16 15 13 13 13 12 12 12 12 10 9 5 8 9 11 8 6 4 4 6 11 11 11 11
8 8 8 9 9 8 12 14 14 15 15 15 16 14 12 13 13 15 15 17 17 15 15 14 14 13 13 10 10 9 7 5 8 9 8 5 2 6 8 13 14 14 13
8 8 9 9 8 8 8 12 11 13 15 15 14 16 12 10 12 12 16 16 16 15 15 15 16 15 15 9 9 10 9 9 10 11 8 5 5 4 7 13 15 16 16
6 9 8 9 8 7 6 5 7 10 12 15 14 14 9 8 10 10 11 14 14 15 14 15 15 14 15 12 10 15 11 6 9 7 6 2 3 4 10 15 15 15 16
7 8 8 9 9 7 6 7 8 8 8 10 12 11 8 9 9 9 7 11 12 16 14 15 14 12 10 7 6 10 8 10 8 7 6 17 11 11 13 16 16 17 17
4 6 10 7 8 8 7 6 5 5 6 7 13 11 9 8 8 7 6 7 8 12 9 11 10 8 10 8 7 6 6 6 6 6 10 19 21 20 18 17 18 18 17
5 8 8 8 8 8 5 6 7 7 7 7 10 13 9 7 8 8 7 9 8 8 11 10 7 9 10 9 9 9 9 7 5 4 6 16 21 22 20 19 20 20 20
4 6 8 8 8 7 8 6 7 7 7 9 10 12 10 9 9 8 9 8 9 9 9 9 10 9 9 10 9 10 9 9 9 4 2 13 18 21 25 24 25 27 26
2 5 6 7 7 7 8 9 7 7 8 8 9 11 13 9 9 9 9 9 9 9 9 9 10 9 8 9 10 9 9 8 7 7 7 7 11 21 23 25 25 26 26
3 3 5 7 7 7 8 7 7 7 7 8 8 12 13 12 11 10 9 9 9 9 11 10 10 9 9 9 10 8 7 10 9 9 10 9 11 13 20 25 24 25 26
5 5 5 4 6 7 7 6 6 7 6 7 8 9 12 12 12 10 9 10 10 9 9 9 9 9 9 9 8 7 6 9 9 11 10 10 10 10 13 24 23 25 26
5 5 5 5 5 6 6 6 7 7 7 7 8 8 11 12 12 9 9 9 10 9 9 9 9 10 9 10 8 6 4 8 9 9 13 13 13 11 10 18 21 22 25
5 4 5 4 4 4 3 4 4 5 6 7 7 8 11 10 12 9 9 10 10 9 9 9 11 10 10 11 9 6 5 5 7 7 10 10 12 12 11 13 10 12 22
6 6 5 5 4 3 2 2 4 5 5 6 7 10 10 10 11 11 8 10 9 9 11 12 10 12 9 12 7 6 5 5 11 8 8 8 12 12 12 11 8 9 10
9 7 6 5 4 3 2 3 3 4 4 5 5 7 9 9 10 9 10 9 10 8 11 12 12 9 7 10 9 5 5 1 9 6 7 8 13 10 10 12 11 11 10
10 9 7 6 5 4 5 4 3 3 3 4 4 5 7 8 9 9 10 9 9 8 8 10 11 12 8 8 11 6 5 4 9 6 8 7 12 10 9 11 12 11 11
12 10 8 7 6 5 3 2 2 3 4 4 4 4 4 7 8 9 9 9 9 7 9 9 9 9 9 8 6 7 5 4 4 6 6 8 11 11 12 8 9 10 12
12 11 9 8 7 5 4 3 2 4 3 3 3 3 4 4 6 7 8 8 8 7 9 9 10 10 8 7 6 7 6 6 6 5 6 8 8 7 9 7 7 7 10
12 11 10 10 8 7 5 4 3 4 3 3 2 2 2 2 3 6 6 7 7 8 9 8 9 9 8 7 6 6 6 5 7 5 8 11 11 9 9 8 7 6 9
Wind_Direction
23 11 356 354 1 6 11 17 18 23 23 25 22 30 38 41 42 40 36 28 22 9 7 15 172 164 170 170 151 140 138 125 107 81 64 64 128 112 94 43 336 71 52
12 17 356 358 4 8 12 15 18 21 19 17 21 23 17 25 34 36 37 32 23 12 9 7 301 208 199 181 172 179 170 159 133 106 284 107 148 134 109 56 16 54 47
16 20 11 1 7 9 13 16 17 21 20 18 18 22 23 25 26 29 29 27 24 16 9 7 5 294 230 206 193 198 196 189 193 230 276 262 131 147 148 112 26 36 337
19 15 26 3 9 13 15 17 19 19 20 19 19 23 27 25 25 26 31 30 22 16 7 0 2 6 240 214 209 209 208 208 207 231 247 261 289 148 198 211 239 298 344
24 21 28 7 12 17 18 18 19 20 19 18 20 24 27 28 30 28 27 23 24 19 7 4 1 357 5 245 228 221 216 215 213 237 263 275 278 141 190 235 243 237 275
29 22 32 13 12 17 19 20 21 20 18 18 18 23 23 27 28 27 27 30 23 21 10 8 7 4 356 350 254 229 218 217 214 240 258 247 249 127 186 267 259 273 261
38 26 31 23 16 20 20 22 22 21 20 19 19 20 23 28 28 25 25 26 19 20 18 14 9 360 350 348 346 257 208 227 237 271 275 275 275 159 217 266 278 278 256
34 30 23 43 22 26 24 24 24 22 20 20 19 20 22 26 28 26 22 23 18 17 18 16 11 2 350 339 342 352 314 231 244 259 285 281 251 174 257 267 271 283 287
37 33 28 20 14 36 43 23 23 23 20 19 21 18 15 27 28 28 22 19 15 14 14 17 11 358 351 346 347 344 335 325 280 279 283 295 302 200 268 278 277 277 284
37 34 30 26 19 15 18 31 26 21 20 18 16 13 11 17 17 34 21 15 15 9 11 12 9 360 349 349 360 352 323 292 259 261 246 264 183 215 274 282 278 278 279
38 26 32 26 22 18 24 33 29 28 25 21 13 12 7 14 12 7 25 12 13 5 9 9 9 360 352 359 359 340 300 278 313 305 296 88 161 266 287 287 284 275 275
21 33 31 26 18 19 18 21 26 26 27 27 19 13 14 15 10 359 15 8 7 3 6 5 7 353 358 355 350 341 349 341 318 325 324 11 347 313 300 287 284 284 273
18 42 38 32 29 23 33 23 28 30 26 24 24 15 21 20 13 16 11 10 5 8 5 2 4 6 354 348 343 340 340 340 338 342 350 9 1 342 314 304 295 284 278
30 36 38 31 30 34 32 37 36 38 30 30 27 19 19 21 21 21 20 15 15 8 5 5 359 351 353 350 346 344 343 337 337 338 353 8 11 9 350 327 322 311 298
47 42 38 35 36 33 36 41 41 39 36 34 29 27 16 24 20 18 18 16 17 9 5 4 358 354 355 355 350 351 345 342 346 352 9 35 21 21 18 13 13 14 10
69 56 51 48 47 50 49 47 46 39 40 39 38 28 26 22 20 25 20 18 15 10 4 2 358 351 353 354 355 355 354 360 355 358 18 54 32 24 16 17 15 16 14
85 85 67 57 53 55 57 53 51 43 45 42 37 34 28 24 25 22 25 19 12 9 7 4 5 359 359 358 354 359 13 30 17 26 36 25 15 19 16 19 12 16 13
140 121 103 86 69 66 63 58 58 51 49 45 40 36 32 26 23 29 25 19 9 11 9 4 6 358 1 360 349 360 11 43 24 41 32 35 19 13 12 15 12 17 14
135 122 110 104 91 79 71 73 67 57 53 49 43 36 30 30 24 30 27 19 15 15 15 5 4 359 0 356 340 7 19 48 19 35 30 37 20 18 10 10 7 14 12
145 125 119 114 118 103 96 98 85 73 63 54 44 38 32 29 27 26 27 24 21 20 16 9 6 3 7 353 342 6 37 57 8 37 30 38 16 17 9 14 5 5 9
165 162 153 137 133 184 159 113 77 67 66 60 52 38 35 31 28 27 26 24 17 25 17 14 3 1 11 358 357 356 55 113 26 33 36 35 15 10 4 12 6 7 4
176 176 165 143 131 116 101 75 63 85 70 66 64 50 35 35 30 32 26 24 23 19 22 19 13 5 16 18 2 314 6 323 24 15 32 17 13 1 359 5 7 8 8
182 179 176 158 141 116 119 127 111 133 145 97 62 56 38 35 32 30 29 24 22 24 21 18 14 16 4 20 33 19 357 359 326 17 17 10 7 359 357 351 9 7 6
186 177 175 165 157 140 147 135 45 60 87 72 67 58 59 37 33 28 26 23 23 22 22 15 19 14 8 17 15 15 30 319 348 320 349 13 351 351 357 341 353 354 4
181 177 177 173 169 155 149 138 129 99 104 96 87 74 60 60 41 29 23 22 22 20 18 17 15 17 15 11 8 2 2 329 35 313 316 338 339 338 335 332 342 351 358
178 179 181 179 179 171 172 169 161 141 138 139 108 90 60 50 39 32 21 19 20 15 13 8 10 14 12 9 3 5 5 359 342 341 323 327 328 337 316 343 352 345 344